This is the latest recevied weather packets stored in our database for station/object W5CMS-13. If no packets are shown the sender has not sent any weather packets the latest 10 day(s).
| Time | Temp. | Humidity | Pressure | Rain* | Wind** | Luminosity | Snow |
|---|---|---|---|---|---|---|---|
| 1787784917 | 38.89° C | 40% | 1010.7 hPa | 0 mm | - | - | - |
| 1787784317 | 38.89° C | 41% | 1010.8 hPa | 0 mm | - | - | - |
| 1787783717 | 38.89° C | 40% | 1011 hPa | 0 mm | - | - | - |
| 1787783118 | 38.89° C | 41% | 1011.3 hPa | 0 mm | - | - | - |
| 1787782517 | 38.89° C | 41% | 1011.6 hPa | 0 mm | - | - | - |
| 1787781918 | 39.44° C | 41% | 1011.6 hPa | 0 mm | - | - | - |
| 1787781319 | 38.89° C | 41% | 1011.8 hPa | 0 mm | - | - | - |
| 1787780718 | 38.33° C | 42% | 1011.9 hPa | 0 mm | - | - | - |
| 1787780118 | 38.89° C | 41% | 1012 hPa | 0 mm | - | - | - |
| 1787779517 | 38.33° C | 41% | 1012 hPa | 0 mm | - | - | - |
| 1787778917 | 38.33° C | 42% | 1012.1 hPa | 0 mm | - | - | - |
| 1787778317 | 37.78° C | 46% | 1012.4 hPa | 0 mm | - | - | - |
| 1787777717 | 36.67° C | 48% | 1012.6 hPa | 0 mm | - | - | - |
| 1787777118 | 36.11° C | 50% | 1012.7 hPa | 0 mm | - | - | - |
| 1787776517 | 35.56° C | 55% | 1012.9 hPa | 0 mm | - | - | - |
| 1787775917 | 35.56° C | 55% | 1013 hPa | 0 mm | - | - | - |
| 1787775317 | 35° C | 55% | 1013 hPa | 0 mm | - | - | - |
| 1787774718 | 35.56° C | 53% | 1013.1 hPa | 0 mm | - | - | - |
| 1787774117 | 36.11° C | 52% | 1013 hPa | 0 mm | - | - | - |
| 1787773517 | 35.56° C | 52% | 1013.1 hPa | 0 mm | - | - | - |
| 1787772917 | 35.56° C | 52% | 1013.3 hPa | 0 mm | - | - | - |
| 1787772318 | 35.56° C | 53% | 1013.4 hPa | 0 mm | - | - | - |
| 1787771117 | 35° C | 52% | 1013.5 hPa | 0 mm | - | - | - |
| 1787770517 | 35.56° C | 50% | 1013.6 hPa | 0 mm | - | - | - |
| 1787769917 | 35.56° C | 49% | 1013.6 hPa | 0 mm | - | - | - |
* Rain latest hour (hover to see other rain measurements)
** Current wind speed in m/s (hover to see current wind gust speed)